Regional Weather Roundup
Issued by NWS

Home | Current Version | Previous Version | Graphics & Text | Print | Product List | Glossary On
Versions: 1 2 3 4 5 6 7 8 9 10 11 12 13 14 15 16 17 18 19 20 21 22 23 24 25 26 27 28 29 30 31 32 33 34 35 36 37 38 39 40 41 42 43 44 45 46 47 48 49 50
000
ASUS43 KFSD 021710
RWRSD

WEATHER ROUNDUP FOR SOUTH DAKOTA
NATIONAL WEATHER SERVICE SIOUX FALLS SD
1200 PM CDT TUE JUN 02 2015

NOTE: "FAIR" INDICATES FEW OR NO CLOUDS BELOW 12,000 FEET WITH NO
SIGNIFICANT WEATHER AND/OR OBSTRUCTIONS TO VISIBILITY.


SDZ001>005-009-010-012>017-021800-
NORTHWEST AND NORTH CENTRAL SOUTH DAKOTA

CITY           SKY/WX    TMP DP  RH WIND       PRES   REMARKS
BUFFALO          N/A     73  59  61 W12       29.77S
FAITH            N/A     76  62  62 NW12      29.77R
MOBRIDGE       MOSUNNY   81  61  50 S14       29.71F
$$

SDZ012>016-024>037-041>051-057-063-072>074-021800-
SOUTHWEST AND SOUTH CENTRAL SOUTH DAKOTA

CITY           SKY/WX    TMP DP  RH WIND       PRES   REMARKS
RAPID CTY ARPT SUNNY     76  58  53 N12       29.83R
PIERRE         SUNNY     81  62  52 S16G24    29.73S
CUSTER         MOSUNNY   75  42  30 W16G22    29.96R HAZE
ELLSWORTH AFB  SUNNY     74  59  59 N14       29.82R
PHILIP         SUNNY     79  63  57 W12       29.76R
PINE RIDGE     MOSUNNY   74  54  49 W8        29.84S
SPEARFISH      FAIR      72  57  60 NW10      29.89S
WINNER         FAIR      83  59  44 S18       29.80F
$$

SDZ004>011-016>023-039-040-021800-
NORTHEAST SOUTH DAKOTA

CITY           SKY/WX    TMP DP  RH WIND       PRES   REMARKS
ABERDEEN       MOSUNNY   71  61  70 S22G31    29.79F
WATERTOWN      CLOUDY    70  58  65 S21G28    29.86F
BROOKINGS      PTSUNNY   72  57  60 S24G32    29.90F
SISSETON         N/A     67  59  75 S13       29.83S
$$

SDZ017-020-022-023-036>040-048>070-021800-
SOUTHEAST SOUTH DAKOTA

CITY           SKY/WX    TMP DP  RH WIND       PRES   REMARKS
SIOUX FALLS    CLOUDY    70  58  65 S18G26    29.93S
HURON          MOSUNNY   74  60  61 S17G29    29.82R
CHAMBERLAIN    SUNNY     74  62  64 S18G25    29.80F
MITCHELL       MOSUNNY   75  60  59 S20G32    29.85F
YANKTON        PTSUNNY   73  57  56 S21G28    29.90F
$$

ABBREVIATIONS USED IN REMARKS
   TC - TEMPERATURE IN CELSIUS
  WCI - WIND CHILL INDEX
   HX - HEAT INDEX
  VSB - VISIBILITY




USA.gov is the U.S. government's official web portal to all federal, state and local government web resources and services.